Wind_Speed
44 43 45 44 44 42 41 40 39 39 39 39 39 39 38 36 35 34 33 31 31 30 30 29 28 27 27 27 26 26 26 26 27 28 28 28 29 29
43 43 43 44 45 45 44 43 41 41 40 39 38 39 38 37 37 35 34 32 32 31 30 30 29 29 28 28 28 28 27 27 27 28 28 28 28 27
41 42 42 42 44 44 45 44 42 43 41 40 40 40 40 38 37 36 36 35 34 33 32 31 30 30 30 29 27 27 27 27 28 28 27 27 27 26
39 41 41 41 42 44 43 42 42 43 42 41 41 41 40 39 38 37 36 36 35 33 33 32 31 30 29 28 26 26 27 27 28 27 26 26 26 25
34 36 38 40 40 41 42 42 41 42 41 40 40 40 41 40 39 38 38 37 36 35 34 33 31 29 28 27 27 27 27 27 27 25 24 24 23 22
29 31 33 37 38 38 39 40 40 40 40 40 40 39 39 40 40 39 38 37 35 33 33 32 31 29 28 27 26 26 26 25 24 23 23 22 21 19
27 28 30 31 33 35 36 37 39 40 40 40 40 40 39 39 38 37 36 34 33 32 31 30 29 27 27 27 26 25 24 23 22 22 21 19 18 18
24 25 27 28 28 30 32 33 35 37 38 38 38 37 36 36 37 36 34 33 32 31 30 28 27 26 26 26 25 24 23 22 22 20 19 18 17 17
20 22 25 27 27 29 29 29 31 33 33 34 35 35 35 35 34 33 33 31 30 28 28 28 27 26 26 25 24 23 22 21 20 18 17 16 16 16
18 19 21 24 25 25 26 26 27 28 28 30 32 32 31 31 31 31 30 28 27 27 27 26 26 25 25 24 22 22 21 20 18 17 17 16 15 14
15 17 19 21 22 22 22 22 23 24 25 26 25 25 25 25 25 25 26 26 26 25 25 25 25 24 23 22 21 20 19 18 17 16 15 14 14 13
11 14 16 18 19 19 20 21 21 22 23 23 22 22 23 23 23 23 24 25 25 24 23 23 22 21 20 20 19 19 18 17 16 15 14 13 12 11
7 10 12 14 16 17 18 19 20 21 21 22 21 21 22 23 23 24 23 23 22 21 21 21 20 19 18 18 17 17 16 15 14 13 12 12 11 11
4 6 9 11 14 16 17 18 19 20 20 21 21 21 22 23 23 23 23 21 20 20 19 19 19 19 17 16 16 15 14 13 13 12 12 11 11 10
2 5 7 10 12 14 15 16 18 19 19 20 21 20 21 21 21 20 21 20 20 19 18 17 17 17 16 15 14 14 13 12 12 11 11 11 11 10
5 6 7 10 12 13 14 15 17 17 18 18 18 18 18 19 19 18 18 18 18 17 17 16 16 15 15 14 14 13 12 12 11 11 11 11 11 10
8 7 7 9 11 12 13 15 16 16 16 16 16 16 17 16 16 15 15 15 15 15 15 14 14 13 13 13 12 12 11 11 11 11 11 11 11 11
9 8 8 9 11 12 12 13 14 14 14 15 15 15 15 15 15 14 14 14 14 14 14 14 14 13 13 12 11 11 11 11 11 11 11 11 11 11
10 9 9 10 11 11 11 12 12 12 13 13 13 13 15 15 15 14 13 13 13 13 14 14 13 12 12 11 11 11 11 10 10 10 11 11 11 12
9 9 9 9 10 10 10 11 11 11 12 12 12 13 13 14 13 13 12 12 12 12 12 11 11 11 11 11 11 11 11 10 10 11 11 12 12 12
8 7 8 8 8 9 9 10 10 10 11 12 12 13 12 12 12 12 12 12 11 11 11 11 11 11 11 11 11 11 11 11 11 12 12 12 13 13
5 5 6 6 7 7 8 8 9 9 10 11 11 11 11 11 11 11 11 11 11 11 11 11 11 11 11 11 11 11 12 12 12 12 12 13 13 14
1 2 3 5 6 6 7 7 8 9 9 10 10 10 10 10 10 10 10 11 11 11 11 11 11 11 11 11 11 12 12 12 12 13 13 14 14 15
Wind_Direction
230 231 231 230 230 230 230 232 232 233 234 234 235 236 236 238 240 243 246 247 249 252 255 257 261 263 266 270 274 277 281 285 288 291 292 293 294 296
232 232 232 232 231 230 231 231 232 232 232 232 234 235 235 236 238 240 242 244 247 250 252 256 260 264 268 270 274 278 281 284 287 290 291 293 295 296
232 232 232 232 232 230 230 230 231 231 231 232 233 234 235 236 236 238 239 243 245 248 250 255 259 263 265 269 274 278 281 283 287 290 291 294 296 297
233 233 234 232 232 232 232 230 230 229 229 231 232 234 234 234 235 236 238 241 243 247 249 254 257 260 263 269 273 278 281 284 287 289 290 292 296 296
236 236 235 232 232 231 233 233 231 228 229 230 231 232 233 233 234 235 236 239 242 244 247 251 255 258 264 266 272 276 278 282 285 287 289 293 295 295
234 236 235 236 235 234 233 232 231 229 227 228 230 230 230 231 232 233 234 236 239 243 246 250 255 258 261 264 269 273 276 280 282 286 289 292 292 293
234 234 234 234 235 234 232 231 231 229 227 229 230 228 228 229 230 230 233 235 237 240 245 250 254 256 258 262 266 270 276 279 281 285 288 288 289 292
238 235 232 230 231 229 227 227 227 227 226 227 228 228 228 228 228 230 232 233 236 241 245 249 252 254 257 260 263 268 273 277 280 282 283 284 285 289
240 236 235 233 231 226 224 224 224 224 223 222 223 224 226 227 229 232 233 233 237 242 245 249 252 254 256 260 264 269 274 275 277 277 280 281 282 286
238 235 233 232 229 228 225 223 220 220 219 219 219 220 222 224 227 230 231 234 237 241 243 246 248 251 255 260 263 266 269 271 272 272 274 275 278 280
237 233 230 229 224 222 221 221 220 220 218 217 217 219 220 222 225 227 229 232 235 238 239 242 246 249 253 256 258 261 263 265 266 269 271 272 274 277
237 231 227 228 223 219 219 219 217 218 218 218 218 218 217 220 224 226 228 230 232 235 238 240 242 245 248 249 251 254 258 260 263 263 265 267 271 273
237 229 223 221 217 214 212 210 208 208 210 212 215 215 214 218 223 224 225 227 230 233 236 237 237 238 242 245 249 253 255 255 256 256 258 263 266 269
221 208 207 207 204 203 203 203 201 202 204 205 208 210 212 216 218 219 221 225 228 230 230 231 233 236 240 243 246 248 249 250 250 252 256 261 264 267
135 169 180 184 186 188 191 194 196 198 200 201 202 206 208 210 213 217 220 224 226 226 225 225 228 233 235 239 241 242 243 245 247 250 257 260 260 264
94 133 150 162 172 179 184 187 189 191 194 199 202 202 204 206 209 212 216 218 218 218 218 219 225 229 233 234 236 238 240 242 245 251 255 255 257 262
83 111 133 146 157 166 174 180 183 188 192 193 196 199 200 200 202 205 208 209 210 212 215 219 223 225 227 228 232 234 236 240 245 248 249 253 257 261
82 100 118 138 150 159 165 171 176 181 184 188 193 196 195 196 200 205 207 207 208 211 214 218 220 223 225 226 229 232 235 241 245 247 250 255 259 264
79 97 112 129 143 153 160 165 171 175 180 184 187 190 194 196 199 203 204 206 210 214 216 216 218 219 221 224 229 234 236 240 245 249 253 257 262 267
76 91 106 124 138 148 154 160 165 171 175 177 180 182 186 192 198 201 204 206 208 211 213 212 213 217 222 227 231 234 238 243 250 254 257 260 265 269
76 92 106 120 133 144 150 156 162 169 176 181 183 187 192 196 199 202 204 205 208 210 212 213 216 221 226 229 232 237 242 247 253 257 260 263 267 271
75 97 113 127 137 145 151 158 165 171 176 181 185 187 190 193 194 195 198 203 207 210 212 215 218 223 227 232 236 242 248 253 257 260 264 267 271 275
72 131 140 148 154 157 161 166 171 173 176 180 184 188 192 194 197 201 205 208 210 212 215 219 222 228 234 238 241 247 252 256 260 264 268 272 276 279
Height
5778 5783 5788 5793 5798 5803 5808 5813 5818 5822 5827 5831 5835 5839 5843 5847 5851 5854 5857 5860 5862 5864 5865 5867 5868 5869 5870 5870 5870 5870 5869 5869 5868 5867 5865 5863 5862 5860
5769 5774 5779 5784 5788 5793 5798 5803 5808 5814 5818 5823 5827 5831 5835 5839 5842 5846 5850 5853 5855 5857 5859 5860 5861 5863 5863 5864 5864 5864 5863 5862 5861 5860 5859 5857 5856 5854
5760 5764 5769 5774 5779 5784 5788 5793 5798 5804 5809 5814 5818 5822 5827 5831 5835 5838 5842 5845 5848 5850 5852 5853 5855 5856 5857 5857 5857 5857 5857 5856 5855 5854 5853 5851 5849 5848
5751 5755 5759 5765 5769 5774 5778 5783 5789 5794 5799 5805 5809 5814 5818 5822 5826 5830 5834 5837 5840 5842 5844 5846 5847 5849 5850 5850 5850 5850 5850 5850 5849 5848 5846 5845 5844 5842
5743 5747 5751 5755 5759 5764 5769 5774 5779 5784 5790 5796 5801 5805 5809 5814 5818 5822 5826 5829 5832 5834 5836 5838 5840 5841 5842 5843 5844 5844 5844 5844 5843 5842 5841 5839 5838 5836
5736 5739 5742 5746 5751 5755 5760 5765 5770 5775 5781 5786 5791 5796 5800 5805 5809 5814 5818 5821 5824 5826 5829 5831 5833 5834 5836 5837 5837 5838 5838 5837 5837 5836 5835 5834 5833 5831
5729 5732 5735 5739 5743 5747 5752 5756 5761 5767 5772 5778 5783 5787 5792 5797 5802 5806 5810 5813 5816 5819 5822 5824 5826 5828 5829 5830 5831 5831 5831 5831 5831 5830 5829 5829 5828 5827
5723 5725 5728 5732 5735 5739 5744 5748 5754 5759 5764 5770 5775 5779 5784 5789 5794 5798 5802 5806 5809 5812 5815 5817 5819 5821 5822 5823 5824 5825 5825 5825 5825 5825 5824 5824 5823 5822
5717 5719 5722 5725 5729 5732 5737 5741 5746 5751 5757 5762 5768 5772 5777 5782 5787 5791 5795 5798 5802 5805 5808 5810 5813 5814 5816 5817 5818 5819 5819 5820 5820 5820 5819 5819 5819 5818
5711 5714 5716 5719 5723 5727 5731 5735 5739 5745 5750 5756 5761 5765 5770 5775 5780 5784 5788 5791 5794 5798 5802 5804 5806 5808 5810 5811 5812 5813 5814 5814 5815 5815 5815 5815 5814 5814
5707 5709 5711 5714 5718 5721 5725 5730 5734 5739 5744 5749 5754 5759 5764 5768 5773 5778 5781 5785 5788 5792 5795 5798 5800 5802 5804 5805 5807 5808 5809 5809 5810 5810 5810 5810 5810 5810
5703 5705 5707 5710 5713 5717 5721 5726 5730 5735 5740 5745 5750 5754 5759 5763 5768 5772 5776 5780 5783 5786 5789 5792 5794 5797 5799 5800 5802 5803 5804 5805 5805 5806 5806 5806 5806 5806
5701 5702 5704 5707 5710 5714 5718 5723 5727 5732 5737 5741 5746 5750 5755 5759 5763 5767 5771 5775 5778 5781 5784 5787 5789 5792 5794 5796 5797 5798 5799 5800 5801 5801 5802 5803 5803 5803
5699 5700 5702 5705 5708 5712 5717 5721 5725 5730 5734 5738 5742 5747 5751 5755 5759 5763 5766 5770 5773 5776 5779 5782 5785 5787 5789 5791 5793 5794 5795 5796 5797 5798 5798 5799 5799 5799
5700 5701 5702 5704 5707 5711 5715 5719 5723 5728 5732 5736 5740 5744 5748 5752 5755 5759 5763 5766 5769 5772 5775 5778 5781 5783 5785 5787 5788 5790 5791 5792 5793 5794 5795 5795 5796 5796
5702 5702 5703 5705 5708 5712 5715 5719 5723 5727 5731 5734 5738 5742 5745 5749 5753 5756 5760 5763 5766 5769 5771 5774 5777 5779 5781 5783 5784 5786 5787 5788 5790 5791 5791 5792 5792 5792
5705 5706 5706 5708 5710 5713 5716 5719 5723 5727 5730 5734 5737 5740 5744 5747 5750 5754 5757 5760 5763 5766 5768 5771 5773 5775 5777 5779 5781 5782 5784 5785 5786 5787 5788 5788 5789 5789
5709 5709 5710 5711 5713 5716 5718 5721 5724 5727 5730 5733 5737 5740 5743 5746 5749 5752 5755 5758 5760 5763 5765 5768 5770 5772 5774 5776 5778 5779 5781 5782 5783 5784 5784 5785 5785 5785
5714 5714 5714 5715 5716 5718 5720 5722 5725 5728 5731 5733 5736 5739 5742 5745 5748 5750 5753 5756 5758 5760 5763 5765 5767 5769 5771 5773 5775 5776 5778 5779 5779 5780 5781 5781 5781 5781
5719 5718 5718 5719 5720 5721 5722 5724 5726 5729 5731 5733 5736 5739 5741 5744 5746 5749 5751 5754 5756 5758 5760 5763 5765 5767 5769 5771 5772 5773 5774 5775 5776 5777 5777 5777 5777 5777
5723 5723 5722 5722 5723 5723 5725 5726 5728 5729 5731 5734 5736 5738 5741 5743 5745 5747 5750 5752 5754 5756 5758 5760 5762 5764 5766 5767 5769 5770 5771 5772 5772 5773 5773 5773 5773 5773
5727 5726 5725 5725 5725 5726 5726 5727 5728 5730 5731 5733 5735 5738 5740 5742 5744 5746 5748 5750 5752 5754 5756 5758 5760 5761 5763 5764 5766 5767 5767 5768 5768 5768 5769 5769 5769 5768
5728 5727 5727 5727 5727 5727 5727 5728 5729 5730 5732 5733 5735 5737 5739 5741 5743 5745 5747 5749 5750 5752 5754 5756 5757 5759 5760 5761 5762 5763 5763 5764 5764 5764 5764 5764 5764 5763